Flag for Germany Weather past 2 weeks in Oldenburg, Lower Saxony, Germany

Now
63 °F

Thunderstorms. Broken clouds.


Feels Like: 63 °F
Forecast: 48 / 69 °F
Wind: 9 mph from Northeast

Location: Bremen Airport


UV Index: 0 (Low)

Visibility: N/A


Pressure: 30.09 "Hg

Humidity: 88%

Dew point: 59 °F

Location of OldenburgLocation

Historic Weather in Oldenburg

°F

Oldenburg temperature yesterday

Maximum temperature yesterday: 66 °F (at 4:50 PM)
Minimum temperature yesterday: 45 °F (at 5:20 AM)
Average temperature yesterday: 57 °F

Past Weeks' High & Low Weather Summary

 TemperatureHumidityPressure
High70 °F (Apr 20, 3:20 PM)100% (Apr 9, 1:20 AM)30.48 "Hg (Apr 9, 1:20 AM)
Low28 °F (Apr 16, 4:20 AM)39% (Apr 16, 4:20 PM)29.71 "Hg (Apr 21, 2:20 PM)
Average50 °F78%30.02 "Hg
* Reported Apr 8 4:20 PM — Apr 23 4:50 PM, Oldenburg, Weather by CustomWeather, © 2014

Note: Actual official high and low records may vary slightly from our data, if they occured in-between our weather recording intervals... More about our weather records

Advertising

Historic Weather Conditions — Data for Previous 24 hours

 ConditionsComfort  
Time TempWeatherWind HumidityBarometerVisibility
4:50 PM
Apr 23
63 °FThunderstorms. Broken clouds.10 mph77%30.09 "HgN/A
4:20 PM64 °FPartly sunny.8 mph68%30.09 "HgN/A
3:50 PM66 °FPartly sunny.3 mph60%30.09 "HgN/A
3:20 PM66 °FPartly sunny.3 mph60%30.09 "HgN/A
2:50 PM68 °FBroken clouds.5 mph56%30.09 "HgN/A
2:20 PM66 °FBroken clouds.3 mph56%30.09 "HgN/A
1:50 PM68 °FBroken clouds.3 mph64%30.09 "HgN/A
1:20 PM64 °FPartly sunny.3 mph68%30.09 "HgN/A
12:50 PM64 °FPartly sunny.3 mph68%30.09 "HgN/A
12:20 PM64 °FSunny.3 mph64%30.09 "Hg10 mi
11:50 AM63 °FClear.5 mph73%30.09 "Hg5 mi
11:20 AM61 °FClear.3 mph72%30.09 "Hg4 mi
10:50 AM61 °FClear.3 mph77%30.09 "Hg4 mi
10:20 AM59 °FFog.6 mph82%30.09 "Hg3 mi
9:50 AM59 °FFog.3 mph82%30.09 "Hg2 mi
9:20 AM55 °FFog.3 mph94%30.09 "Hg2 mi
8:50 AM54 °FFog.2 mph100%30.09 "Hg2 mi
8:20 AM50 °FFog.5 mph100%30.09 "Hg2 mi
7:50 AM48 °FFog.3 mph100%30.09 "Hg1 mi
7:20 AM45 °FFog.2 mph100%30.07 "Hg0 mi
6:50 AM43 °FFog.5 mph100%30.07 "Hg0 mi
6:20 AM45 °FLight fog.2 mph93%30.07 "Hg0 mi
5:50 AM43 °FLight fog.3 mph100%30.07 "Hg1 mi
5:20 AM43 °FLight fog.5 mph93%30.04 "Hg1 mi
4:50 AM45 °FSleet. Overcast.5 mph100%30.04 "Hg1 mi
4:20 AM48 °FFog.No wind94%30.04 "Hg4 mi
3:50 AM48 °FClear.1 mph100%30.04 "Hg10 mi
3:20 AM50 °FPassing clouds.3 mph94%30.04 "HgN/A
2:50 AM50 °FClear.5 mph94%30.01 "Hg10 mi
2:20 AM50 °FClear.6 mph94%30.01 "Hg10 mi
1:50 AM50 °FPassing clouds.3 mph94%30.01 "HgN/A
1:20 AM50 °FFog.3 mph94%30.01 "HgN/A
12:50 AM52 °FClear.3 mph94%30.01 "Hg10 mi
12:20 AM52 °FClear.3 mph94%30.01 "Hg10 mi
11:50 PM
Apr 22
54 °FPassing clouds.3 mph88%29.98 "HgN/A
11:20 PM57 °FPartly cloudy.6 mph82%29.98 "HgN/A
10:50 PM57 °FPartly cloudy.8 mph82%29.98 "HgN/A
10:20 PM57 °FPartly cloudy.9 mph82%29.98 "HgN/A
9:50 PM59 °FSprinkles. Partly cloudy.7 mph77%29.98 "HgN/A
9:20 PM61 °FThundershowers. Broken clouds.3 mph68%29.95 "HgN/A
8:50 PM61 °FPartly sunny.8 mph72%29.95 "HgN/A
8:20 PM61 °FPartly sunny.3 mph77%29.92 "HgN/A
7:50 PM61 °FBroken clouds.5 mph77%29.92 "HgN/A
7:20 PM63 °FPartly sunny.3 mph68%29.92 "HgN/A
6:50 PM64 °FPartly sunny.3 mph64%29.89 "HgN/A
6:20 PM66 °FScattered clouds.2 mph56%29.89 "HgN/A
5:50 PM66 °FSunny.2 mph60%29.89 "Hg10 mi
5:20 PM66 °FPassing clouds.3 mph52%29.86 "HgN/A
Weather by CustomWeather, © 2014

See weather overview